Weather History for Alliance, NE

Change the Weather History Date:

Saturday, January 12, 2013

  Actual Average Record
Temperature  
Mean Temperature 0 °F 24 °F  
Max Temperature 12 °F 38 °F 63 °F (1959)
Min Temperature -12 °F 10 °F -26 °F (1912)
Degree Days  
Heating Degree Days 65 41  
Month to date heating degree days 505 495  
Since 1 July heating degree days 3309 3577  
Cooling Degree Days 0 0  
Month to date cooling degree days 0 0  
Year to date cooling degree days 0 0  
Moisture  
Dew Point -3 °F    
Average Humidity 76    
Maximum Humidity 86    
Minimum Humidity 66    
Precipitation  
Precipitation 0.00 in 0.00 in 0.25 in (1897)
Month to date precipitation T 0.06  
Year to date precipitation T 0.06  
Sea Level Pressure  
Sea Level Pressure 30.10 in    
Wind  
Wind Speed 11 mph (NW)    
Max Wind Speed 22 mph    
Max Gust Speed 30 mph    
Visibility 10 miles    
Events      
T = Trace of Precipitation, MM = Missing Value Source: NWS Daily Summary

Daily Weather History Graph

Daily Weather History Graph

Search for Another Location

Airport:

Trip Planner

Search our weather history database for the weather conditions in past years. The results will help you decide how hot, cold, wet, or windy it might be!

Date:

Astronomy

Jan. 12, 2013 Rise Set
Actual Time 7:17 AM MST 4:41 PM MST
Civil Twilight 6:46 AM MST 5:12 PM MST
Nautical Twilight 6:12 AM MST 5:47 PM MST
Astronomical Twilight 5:38 AM MST 6:20 PM MST
Moon 7:36 AM MST (1/12) 6:15 PM MST (1/12)
Length of Visible Light 10h 25m
Length of Day
9h 23m
New Moon, 1% of the Moon is Illuminated
Jan 12
New Moon
Jan 18
First Quarter
Jan 26
Full
Feb 3
Last Quarter
Feb 10
New

Hourly Weather History & Observations

Time (MST) Temp. Windchill Dew Point Humidity Pressure Visibility Wind Dir Wind Speed Gust Speed Precip Events Conditions
12:53 AM 5.0 °F -13.6 °F -2.0 °F 73% 29.99 in 10.0 mi WNW 16.1 mph - N/A   Clear
1:53 AM 3.0 °F -13.3 °F -2.9 °F 76% 30.03 in 10.0 mi WNW 11.5 mph - N/A   Clear
2:53 AM 5.0 °F -13.6 °F -2.0 °F 73% 30.04 in 10.0 mi WNW 16.1 mph 23.0 mph N/A   Clear
3:53 AM 3.9 °F -13.7 °F -2.0 °F 76% 30.06 in 10.0 mi WNW 13.8 mph - N/A   Mostly Cloudy
4:07 AM 5.0 °F -12.3 °F -0.4 °F 78% 29.86 in 10.0 mi WNW 13.8 mph - N/A   Scattered Clouds
4:22 AM 3.2 °F -13.1 °F -2.2 °F 78% 29.86 in 10.0 mi WNW 11.5 mph - N/A   Mostly Cloudy
4:53 AM 3.9 °F -13.7 °F -2.0 °F 76% 30.07 in 10.0 mi NW 13.8 mph - N/A   Scattered Clouds
5:02 AM 3.2 °F -15.9 °F -2.2 °F 78% 29.86 in 10.0 mi NW 16.1 mph - N/A   Mostly Cloudy
5:53 AM 5.0 °F -13.0 °F -0.9 °F 76% 30.09 in 10.0 mi NW 15.0 mph 20.7 mph N/A   Overcast
6:53 AM 3.9 °F -13.0 °F -2.9 °F 73% 30.14 in 10.0 mi NNW 12.7 mph - N/A   Mostly Cloudy
7:49 AM 3.2 °F -9.1 °F -2.2 °F 78% 29.95 in 10.0 mi NW 6.9 mph - N/A   Mostly Cloudy
7:53 AM 3.0 °F -10.5 °F -2.9 °F 76% 30.16 in 10.0 mi NW 8.1 mph - N/A   Mostly Cloudy
8:01 AM 3.2 °F -9.1 °F -2.2 °F 78% 29.96 in 10.0 mi NW 6.9 mph - N/A   Scattered Clouds
8:53 AM 7.0 °F -7.5 °F -0.0 °F 73% 30.20 in 10.0 mi NW 10.4 mph - N/A   Clear
9:53 AM 9.0 °F -10.0 °F 1.0 °F 70% 30.21 in 10.0 mi NNW 19.6 mph - N/A   Clear
10:53 AM 10.9 °F -7.5 °F 3.0 °F 70% 30.19 in 10.0 mi NNW 19.6 mph - N/A   Clear
11:53 AM 10.9 °F -7.0 °F 1.9 °F 67% 30.18 in 10.0 mi NNW 18.4 mph - N/A   Clear
12:53 PM 10.9 °F -5.9 °F 1.9 °F 67% 30.18 in 10.0 mi NNW 16.1 mph - N/A   Partly Cloudy
1:45 PM 12.2 °F -2.5 °F 3.2 °F 67% 29.99 in 10.0 mi NW 12.7 mph 19.6 mph N/A   Mostly Cloudy
1:53 PM 12.0 °F -3.4 °F 1.9 °F 64% 30.20 in 10.0 mi NNW 13.8 mph - N/A   Mostly Cloudy
2:45 PM 10.4 °F -4.8 °F 1.4 °F 67% 30.00 in 10.0 mi NNW 12.7 mph - N/A   Scattered Clouds
2:53 PM 10.9 °F -4.7 °F 1.9 °F 67% 30.21 in 10.0 mi North 13.8 mph - N/A   Partly Cloudy
3:53 PM 10.0 °F -5.2 °F 1.0 °F 67% 30.21 in 10.0 mi NNW 12.7 mph - N/A   Clear
4:53 PM 3.9 °F -9.4 °F -0.9 °F 80% 30.23 in 10.0 mi NNW 8.1 mph - N/A   Clear
5:53 PM -0.4 °F -10.4 °F -5.8 °F 78% 30.01 in 10.0 mi NW 4.6 mph - N/A   Clear
6:53 PM -0.9 °F - -6.0 °F 79% 30.27 in 10.0 mi Calm Calm - N/A   Clear
7:53 PM -9.9 °F -27.5 °F -14.1 °F 82% 30.30 in 10.0 mi West 9.2 mph - N/A   Clear
8:53 PM -11.9 °F -25.7 °F -17.0 °F 78% 30.30 in 10.0 mi West 5.8 mph - N/A   Clear
9:53 PM -7.6 °F -18.8 °F -14.8 °F 71% 30.03 in 10.0 mi West 4.6 mph - N/A   Overcast
10:53 PM -7.1 °F - -11.9 °F 79% 30.28 in 6.0 mi Calm Calm - N/A   Haze
11:08 PM -5.8 °F -14.5 °F -11.2 °F 77% 30.03 in 5.0 mi WSW 3.5 mph - N/A   Haze
11:42 PM -5.8 °F -18.4 °F -9.4 °F 84% 30.03 in 5.0 mi West 5.8 mph - N/A   Overcast
11:53 PM -5.1 °F -15.8 °F -9.0 °F 83% 30.27 in 10.0 mi West 4.6 mph - N/A   Overcast